Language selection

My Weather Profile Weather Topics  | 

Hudson - Hudson Bay: Past 24 Hour Conditions

 

Arviat Airport

05:00 AM CST 02 February 2023
Disclaimer

This table is a summary of hourly weather conditions for the past 24 hours.
Please note that these observations might not always be representative of weather conditions over their associated marine area.

Date / Time
(CST)
Wind(knots) Conditions Visibility(km) Pressure(kPa) Air tempC) Relative humidity(%) Dew pointC) Wind Chill
02 February 2023
5:00 NW 15 Haze 5 101.8 -39 62 -43 -57
4:00 NNW 17 Haze 4 101.7 -39 62 -44 -58
3:00 NW 17 gust 22 Haze 2 101.7 -39 62 -44 -58
2:00 NW 18 Haze 2 101.6 -39 62 -44 -59
1:00 NW 15 Haze 5 101.6 -40 61 -45 -58
0:00 NNW 16 Haze 3 101.6 -40 61 -45 -59
01 February 2023
23:00 NNW 14 Haze 5 101.5 -40 61 -45 -58
22:00 NNW 17 Haze 3 101.4 -40 61 -45 -59
21:00 NNW 15 Haze 5 101.4 -40 61 -45 -58
20:00 NNW 17 Haze 2 101.4 -40 61 -45 -59
19:00 NNW 18 Haze 2 101.4 -40 61 -45 -59
18:00 NNW 17 Haze 2 101.3 -40 62 -44 -59
17:00 NNW 15 Blowing Snow 5 101.2 -39 62 -44 -57
16:00 NNW 17 Blowing Snow 3 101.2 -39 62 -43 -58
15:00 NNW 12 Blowing Snow 6 101.1 -39 61 -43 -55
14:00 NNW 15 Ice Crystals 16 101.0 -39 61 -44 -56
13:00 NNW 15 Ice Crystals 24 101.0 -39 59 -44 -56
12:00 NNW 14 Ice Crystals 24 100.9 -39 60 -44 -56
11:00 NNW 13 Ice Crystals 24 100.9 -39 61 -44 -55
10:00 NNW 11 Ice Crystals 24 100.9 -39 61 -44 -55
9:00 NNW 11 Ice Crystals 24 100.8 -38 62 -43 -54
8:00 NNW 10 Ice Crystals 24 100.8 -38 63 -43 -53
7:00 NW 11 Ice Crystals 24 100.9 -37 63 -42 -52
6:00 NW 10 Clear 16 100.9 -37 63 -41 -51
5:00 NW 11 Mostly Cloudy 16 100.9 -36 63 -41 -51

Zoom-in to make a selection

Map of Hudson - Hudson Bay marine weather areas Arviat Airport Baker Lake Airport Chesterfield Inlet Airport Coral Harbour Airport Rankin Inlet Airport Sanikiluaq Airport Whale Cove Airport Kinngait (Cape Dorset Airport) Iqaluit Airport Wager Bay Kimmirut Airport Churchill Airport Fort Severn Airport Peawanuck Airport Moosonee Airport Eastmain Airport La Grande Rivière Airport Waskaganish Airport Wemindji Airport Akulivik Airport Inukjuak Airport Ivujivik Airport Kuujjuarapik Airport Puvirnituq Airport Umiujaq Airport Aupaluk Airport Kangiqsujuaq Airport Kangirsuk Airport Kangiqsualujjuaq Airport Kuujjuaq Airport Quaqtaq Airport Salluit Airport Tasiujaq Airport Cape Kakkiviak
Legend:
buoy Buoy
land station Land Station

Hudson - Hudson Bay Area

Another Region

What we are doing

Date modified: